Location: Muenchen
(48.1800°N, 11.5800°E)
Time: 06:56:40
(UTC+02:00)

Tiros 1 - Visible Passes

Search period start: 06 July 2015 00:00
Search period end: 16 July 2015 00:00
Orbit: 632 x 665 km, 48.4° (Epoch: 05 July)

Date Brightness Start Highest point End Pass type
(mag) Time Alt. Az. Time Alt. Az. Time Alt. Az.
06 Jul 7.1 01:41:08 10° W 01:45:47 86° N 01:50:28 10° E visible
06 Jul 7.1 03:23:24 10° W 03:28:00 63° SSW 03:32:37 10° ESE visible
06 Jul 7.5 22:43:49 10° SW 22:48:07 39° SSE 22:52:28 10° E visible
07 Jul 7.0 00:25:29 10° WSW 00:30:07 86° S 00:34:47 10° E visible
07 Jul 7.0 02:07:45 10° W 02:12:25 86° SSW 02:17:06 10° ESE visible
07 Jul 7.5 03:50:05 10° W 03:54:25 39° SSW 03:58:46 10° SE visible
07 Jul 7.0 23:09:58 10° WSW 23:14:32 63° SSE 23:19:08 10° E visible
08 Jul 7.1 00:52:06 10° W 00:56:45 86° N 01:01:25 10° E visible
08 Jul 7.0 02:34:22 10° W 02:38:58 65° SSW 02:43:35 10° ESE visible
08 Jul 8.2 04:17:03 10° W 04:20:41 22° SW 04:24:16 10° SSE visible
08 Jul 7.6 21:54:50 10° SW 21:59:06 38° SSE 22:03:24 10° E visible
08 Jul 7.0 23:36:27 10° WSW 23:41:05 85° S 23:45:44 10° E visible
09 Jul 7.0 01:18:43 10° W 01:23:22 87° S 01:28:02 10° ESE visible
09 Jul 7.4 03:01:02 10° W 03:05:23 41° SSW 03:09:46 10° SE visible
09 Jul 7.1 22:20:57 10° WSW 22:25:30 61° SSE 22:30:05 10° E visible
10 Jul 7.1 00:03:03 10° W 00:07:42 86° N 00:12:22 10° E visible
10 Jul 7.0 01:45:19 10° W 01:49:55 67° SSW 01:54:32 10° ESE visible
10 Jul 8.1 03:27:57 10° W 03:31:40 23° SW 03:35:20 10° SSE visible
10 Jul 7.0 22:47:24 10° WSW 22:52:02 83° SSE 22:56:41 10° E visible
11 Jul 7.0 00:29:40 10° W 00:34:19 88° S 00:38:59 10° E visible
11 Jul 7.4 02:11:59 10° W 02:16:22 43° SSW 02:17:03 40° S visible
11 Jul 7.1 23:14:00 10° W 23:18:39 86° N 23:23:18 10° E visible
12 Jul 7.0 00:56:17 10° W 01:00:53 69° SSW 01:02:59 31° ESE visible
12 Jul 8.8 02:38:52 10° W 02:40:35 18° WSW 02:40:35 18° WSW visible
12 Jul 7.1 21:58:21 10° WSW 22:02:59 82° S 22:07:38 10° E visible
12 Jul 7.0 23:40:37 10° W 23:45:16 89° S 23:49:34 12° E visible
13 Jul 7.4 01:22:55 10° W 01:27:11 44° SSW 01:27:11 44° SSW visible
13 Jul 7.1 22:24:57 10° W 22:29:36 87° N 22:34:15 10° E visible
14 Jul 7.0 00:07:13 10° W 00:11:50 71° SSW 00:14:02 30° ESE visible
14 Jul 8.8 01:49:47 10° W 01:51:40 19° WSW 01:51:40 19° WSW visible
14 Jul 7.1 22:51:34 10° W 22:56:13 90° N 23:00:52 10° E visible
15 Jul 7.3 00:33:51 10° W 00:38:18 46° SSW 00:38:40 45° S visible
15 Jul 7.0 23:18:10 10° W 23:22:47 73° SSW 23:25:46 22° ESE visible
